User: anonymous   Login
Location: Unspecified
(0.0000°N, 0.0000°E)
Time: 05:25:36
(UTC+00:00)
Language:

USA-164 - Orbit

View from above orbital plane
View from above orbital plane
View from above satellite
View from above satellite

Ground track
Ground track

The orbit data is extracted from the following two-line orbital elements,

1 27168U 02001A   17165.31941584 0.00000000  00000-0  00000-0 0    05
2 27168   7.6335  36.8798 0001638  28.2319 331.6874  1.00270000    06
Epoch (UTC): 14 June 2017 07:39:57
Eccentricity: 0.0001638
inclination: 7.6335°
perigee height: 35780 km
apogee height: 35793 km
right ascension of ascending node: 36.8798°
argument of perigee: 28.2319°
revolutions per day: 1.00270000
mean anomaly at epoch: 331.6874°
orbit number at epoch: 0

The dashed part of the orbit path shows where the satellite is in the earth's shadow,  

DLR